Location: downtown San Diego
(32.7310°N, 117.1990°W)
Time: 17:35:33
(UTC-07:00)

Cosmos 972 Rocket - Pass Details

Date: 14 June 2018
Orbit: 713 x 1151 km, 75.8° (Epoch: 16 October)

Event Time Altitude Azimuth Distance (km) Brightness Sun altitude
Rises 21:23:25 0° 194° (SSW) 3,221 7.0 -15.5°
Reaches altitude 10° 21:25:49 10° 195° (SSW) 2,257 6.2 -15.9°
Maximum altitude 21:30:51 84° 284° (WNW) 728 3.9 -16.7°
Drops below altitude 10° 21:35:44 10° 13° (NNE) 2,196 6.8 -17.4°
Sets 21:38:03 0° 14° (NNE) 3,128 7.6 -17.8°
